Time,TemperatureF,DewpointF,PressureIn,WindDirection,WindDirectionDegrees,WindSpeedMPH,WindSpeedGustMPH,Humidity,HourlyPrecipIn,Conditions,Clouds,dailyrainin,SoftwareType,DateUTC
2013-05-19 00:01:00,63.0,30.0,-100.00,WNW,288,8.0,20.0,29,-99.99,,,-99.99,,2013-05-19 00:01:00,
2013-05-19 00:11:00,63.0,30.0,-100.00,WNW,288,8.0,20.0,29,-99.99,,,-99.99,,2013-05-19 00:11:00,
2013-05-19 00:21:00,63.0,31.0,-100.00,WNW,295,10.0,25.0,30,-99.99,,,-99.99,,2013-05-19 00:21:00,
2013-05-19 00:31:00,63.0,31.0,-100.00,WNW,295,10.0,25.0,30,-99.99,,,-99.99,,2013-05-19 00:31:00,
2013-05-19 00:41:00,63.0,29.0,-100.00,WNW,282,7.0,18.0,28,-99.99,,,-99.99,,2013-05-19 00:41:00,
2013-05-19 00:52:00,62.0,29.0,-100.00,West,281,7.0,19.0,29,-99.99,,,-99.99,,2013-05-19 00:52:00,
2013-05-19 01:01:00,62.0,29.0,-100.00,WNW,284,8.0,19.0,29,-99.99,,,-99.99,,2013-05-19 01:01:00,
2013-05-19 01:11:00,62.0,29.0,-100.00,NW,308,5.0,15.0,29,-99.99,,,-99.99,,2013-05-19 01:11:00,
2013-05-19 01:21:00,61.0,31.0,-100.00,WNW,292,5.0,14.0,31,-99.99,,,-99.99,,2013-05-19 01:21:00,
2013-05-19 01:32:00,60.0,29.0,-100.00,WNW,289,8.0,20.0,31,-99.99,,,-99.99,,2013-05-19 01:32:00,
2013-05-19 01:42:00,60.0,30.0,-100.00,WNW,291,9.0,20.0,32,-99.99,,,-99.99,,2013-05-19 01:42:00,
2013-05-19 01:52:00,59.0,31.0,-100.00,WNW,292,5.0,13.0,34,-99.99,,,-99.99,,2013-05-19 01:52:00,
2013-05-19 02:01:00,59.0,31.0,-100.00,WNW,289,6.0,18.0,34,-99.99,,,-99.99,,2013-05-19 02:01:00,
2013-05-19 02:11:00,58.0,31.0,-100.00,WNW,285,8.0,23.0,35,-99.99,,,-99.99,,2013-05-19 02:11:00,
2013-05-19 02:21:00,58.0,30.0,-100.00,WNW,285,8.0,23.0,34,-99.99,,,-99.99,,2013-05-19 02:21:00,
2013-05-19 02:32:00,58.0,31.0,-100.00,West,281,6.0,18.0,35,-99.99,,,-99.99,,2013-05-19 02:32:00,
2013-05-19 02:42:00,58.0,31.0,-100.00,WNW,287,5.0,15.0,36,-99.99,,,-99.99,,2013-05-19 02:42:00,
2013-05-19 02:52:00,58.0,31.0,-100.00,WNW,287,5.0,15.0,36,-99.99,,,-99.99,,2013-05-19 02:52:00,
2013-05-19 03:01:00,58.0,31.0,-100.00,WNW,287,5.0,15.0,36,-99.99,,,-99.99,,2013-05-19 03:01:00,
2013-05-19 03:11:00,58.0,31.0,-100.00,WNW,287,5.0,15.0,36,-99.99,,,-99.99,,2013-05-19 03:11:00,
2013-05-19 03:21:00,58.0,31.0,-100.00,WNW,287,5.0,15.0,36,-99.99,,,-99.99,,2013-05-19 03:21:00,
2013-05-19 05:12:00,52.0,31.0,-100.00,WSW,250,3.0,10.0,45,-99.99,,,-99.99,,2013-05-19 05:12:00,
2013-05-19 05:22:00,52.0,29.0,-100.00,WNW,282,2.0,9.0,42,-99.99,,,-99.99,,2013-05-19 05:22:00,
2013-05-19 05:32:00,52.0,30.0,-100.00,West,281,4.0,14.0,42,-99.99,,,-99.99,,2013-05-19 05:32:00,
2013-05-19 05:42:00,52.0,29.0,-100.00,WSW,247,4.0,14.0,41,-99.99,,,-99.99,,2013-05-19 05:42:00,
2013-05-19 05:51:00,52.0,30.0,-100.00,West,264,6.0,16.0,43,-99.99,,,-99.99,,2013-05-19 05:51:00,
2013-05-19 06:02:00,52.0,30.0,-100.00,West,278,5.0,17.0,43,-99.99,,,-99.99,,2013-05-19 06:02:00,
2013-05-19 06:12:00,51.0,30.0,-100.00,WNW,294,6.0,25.0,44,-99.99,,,-99.99,,2013-05-19 06:12:00,
2013-05-19 06:21:00,52.0,30.0,-100.00,WNW,294,7.0,19.0,42,-99.99,,,-99.99,,2013-05-19 06:21:00,
2013-05-19 06:32:00,51.0,31.0,-100.00,WNW,289,7.0,15.0,46,-99.99,,,-99.99,,2013-05-19 06:32:00,
2013-05-19 06:42:00,51.0,31.0,-100.00,West,280,2.0,15.0,46,-99.99,,,-99.99,,2013-05-19 06:42:00,
2013-05-19 06:51:00,51.0,32.0,-100.00,WNW,292,8.0,23.0,48,-99.99,,,-99.99,,2013-05-19 06:51:00,
2013-05-19 07:01:00,51.0,32.0,-100.00,WNW,292,8.0,23.0,48,-99.99,,,-99.99,,2013-05-19 07:01:00,
2013-05-19 07:11:00,51.0,32.0,-100.00,WNW,296,7.0,23.0,48,-99.99,,,-99.99,,2013-05-19 07:11:00,
2013-05-19 07:21:00,51.0,32.0,-100.00,WNW,296,7.0,23.0,48,-99.99,,,-99.99,,2013-05-19 07:21:00,
2013-05-19 07:32:00,51.0,32.0,-100.00,WNW,296,7.0,23.0,48,-99.99,,,-99.99,,2013-05-19 07:32:00,
2013-05-19 07:41:00,50.0,33.0,-100.00,WNW,287,7.0,17.0,51,-99.99,,,-99.99,,2013-05-19 07:41:00,
2013-05-19 07:52:00,51.0,33.0,-100.00,WNW,285,7.0,17.0,51,-99.99,,,-99.99,,2013-05-19 07:52:00,
2013-05-19 08:01:00,51.0,34.0,-100.00,WNW,287,7.0,17.0,51,-99.99,,,-99.99,,2013-05-19 08:01:00,
2013-05-19 08:12:00,50.0,34.0,-100.00,West,280,6.0,18.0,54,-99.99,,,-99.99,,2013-05-19 08:12:00,
2013-05-19 08:21:00,50.0,34.0,-100.00,West,281,7.0,16.0,54,-99.99,,,-99.99,,2013-05-19 08:21:00,
2013-05-19 08:32:00,50.0,34.0,-100.00,WNW,287,4.0,13.0,55,-99.99,,,-99.99,,2013-05-19 08:32:00,
2013-05-19 08:41:00,50.0,34.0,-100.00,WNW,285,6.0,13.0,54,-99.99,,,-99.99,,2013-05-19 08:41:00,
2013-05-19 08:52:00,49.0,34.0,-100.00,WNW,287,5.0,17.0,57,-99.99,,,-99.99,,2013-05-19 08:52:00,
2013-05-19 09:02:00,49.0,34.0,-100.00,WNW,289,5.0,13.0,57,-99.99,,,-99.99,,2013-05-19 09:02:00,
2013-05-19 09:11:00,48.0,34.0,-100.00,WNW,298,5.0,13.0,58,-99.99,,,-99.99,,2013-05-19 09:11:00,
2013-05-19 09:21:00,48.0,34.0,-100.00,WNW,296,5.0,13.0,58,-99.99,,,-99.99,,2013-05-19 09:21:00,
2013-05-19 09:32:00,48.0,34.0,-100.00,West,268,2.0,11.0,59,-99.99,,,-99.99,,2013-05-19 09:32:00,
2013-05-19 09:42:00,47.0,31.0,-100.00,SSW,202,2.0,6.0,53,-99.99,,,-99.99,,2013-05-19 09:42:00,
2013-05-19 09:53:00,46.0,33.0,-100.00,NW,320,1.0,10.0,62,-99.99,,,-99.99,,2013-05-19 09:53:00,
2013-05-19 10:02:00,46.0,34.0,-100.00,NW,306,1.0,4.0,63,-99.99,,,-99.99,,2013-05-19 10:02:00,
2013-05-19 10:12:00,46.0,34.0,-100.00,NW,306,1.0,4.0,63,-99.99,,,-99.99,,2013-05-19 10:12:00,
2013-05-19 10:22:00,47.0,33.0,-100.00,WNW,302,3.0,12.0,57,-99.99,,,-99.99,,2013-05-19 10:22:00,
2013-05-19 10:32:00,47.0,32.0,-100.00,NW,309,2.0,5.0,56,-99.99,,,-99.99,,2013-05-19 10:32:00,
2013-05-19 10:42:00,46.0,32.0,-100.00,West,263,0.0,6.0,58,-99.99,,,-99.99,,2013-05-19 10:42:00,
2013-05-19 10:52:00,47.0,33.0,-100.00,NW,326,1.0,6.0,57,-99.99,,,-99.99,,2013-05-19 10:52:00,
2013-05-19 11:02:00,46.0,33.0,-100.00,South,189,1.0,8.0,60,-99.99,,,-99.99,,2013-05-19 11:02:00,
2013-05-19 11:11:00,46.0,33.0,-100.00,SW,219,2.0,11.0,60,-99.99,,,-99.99,,2013-05-19 11:11:00,
2013-05-19 11:21:00,46.0,33.0,-100.00,SW,219,1.0,11.0,60,-99.99,,,-99.99,,2013-05-19 11:21:00,
2013-05-19 11:32:00,46.0,33.0,-100.00,SW,219,2.0,11.0,61,-99.99,,,-99.99,,2013-05-19 11:32:00,
2013-05-19 11:42:00,46.0,34.0,-100.00,SSW,196,1.0,8.0,62,-99.99,,,-99.99,,2013-05-19 11:42:00,
2013-05-19 11:52:00,45.0,34.0,-100.00,SW,236,3.0,8.0,64,-99.99,,,-99.99,,2013-05-19 11:52:00,
2013-05-19 12:01:00,45.0,34.0,-100.00,SW,233,2.0,9.0,64,-99.99,,,-99.99,,2013-05-19 12:01:00,
2013-05-19 12:11:00,45.0,35.0,-100.00,SSW,203,1.0,7.0,67,-99.99,,,-99.99,,2013-05-19 12:11:00,
2013-05-19 12:21:00,45.0,34.0,-100.00,SSW,199,1.0,8.0,67,-99.99,,,-99.99,,2013-05-19 12:21:00,
2013-05-19 12:31:00,44.0,35.0,-100.00,West,280,3.0,4.0,70,-99.99,,,-99.99,,2013-05-19 12:31:00,
2013-05-19 12:41:00,44.0,35.0,-100.00,West,280,3.0,4.0,70,-99.99,,,-99.99,,2013-05-19 12:41:00,
2013-05-19 12:52:00,43.0,34.0,-100.00,SW,222,2.0,11.0,70,-99.99,,,-99.99,,2013-05-19 12:52:00,
2013-05-19 13:01:00,44.0,34.0,-100.00,West,265,4.0,7.0,69,-99.99,,,-99.99,,2013-05-19 13:01:00,
2013-05-19 13:11:00,44.0,34.0,-100.00,WNW,292,3.0,10.0,68,-99.99,,,-99.99,,2013-05-19 13:11:00,
2013-05-19 13:21:00,44.0,34.0,-100.00,West,267,0.0,6.0,67,-99.99,,,-99.99,,2013-05-19 13:21:00,
2013-05-19 13:31:00,44.0,34.0,-100.00,West,267,0.0,6.0,67,-99.99,,,-99.99,,2013-05-19 13:31:00,
2013-05-19 13:42:00,45.0,35.0,-100.00,NNW,343,0.0,6.0,67,-99.99,,,-99.99,,2013-05-19 13:42:00,
2013-05-19 13:52:00,45.0,35.0,-100.00,NNW,343,0.0,7.0,67,-99.99,,,-99.99,,2013-05-19 13:52:00,
2013-05-19 14:02:00,48.0,36.0,-100.00,SSE,165,0.0,5.0,62,-99.99,,,-99.99,,2013-05-19 14:02:00,
2013-05-19 14:11:00,48.0,35.0,-100.00,ESE,123,1.0,6.0,61,-99.99,,,-99.99,,2013-05-19 14:11:00,
2013-05-19 14:21:00,46.0,34.0,-100.00,SE,133,1.0,9.0,63,-99.99,,,-99.99,,2013-05-19 14:21:00,
2013-05-19 14:32:00,47.0,35.0,-100.00,SSE,158,2.0,9.0,64,-99.99,,,-99.99,,2013-05-19 14:32:00,
2013-05-19 14:41:00,47.0,36.0,-100.00,ENE,75,1.0,11.0,66,-99.99,,,-99.99,,2013-05-19 14:41:00,
2013-05-19 14:51:00,47.0,36.0,-100.00,ENE,62,1.0,11.0,63,-99.99,,,-99.99,,2013-05-19 14:51:00,
2013-05-19 14:52:00,48.0,34.0,-100.00,ESE,107,2.0,11.0,59,-99.99,,,-99.99,,2013-05-19 14:52:00,
2013-05-19 15:01:00,47.0,34.0,-100.00,ESE,102,2.0,7.0,61,-99.99,,,-99.99,,2013-05-19 15:01:00,
2013-05-19 15:11:00,47.0,35.0,-100.00,East,93,2.0,9.0,62,-99.99,,,-99.99,,2013-05-19 15:11:00,
2013-05-19 15:21:00,48.0,34.0,-100.00,ESE,107,2.0,11.0,59,-99.99,,,-99.99,,2013-05-19 15:21:00,
2013-05-19 15:33:00,48.0,34.0,-100.00,ESE,107,2.0,11.0,59,-99.99,,,-99.99,,2013-05-19 15:33:00,
2013-05-19 15:43:00,48.0,34.0,-100.00,ESE,107,2.0,11.0,59,-99.99,,,-99.99,,2013-05-19 15:43:00,
2013-05-19 21:32:00,63.0,32.0,-100.00,East,95,4.0,12.0,31,-99.99,,,-99.99,,2013-05-19 21:32:00,
2013-05-19 21:43:00,62.0,33.0,-100.00,ESE,121,5.0,12.0,33,-99.99,,,-99.99,,2013-05-19 21:43:00,
2013-05-19 21:53:00,63.0,27.0,-100.00,ESE,117,5.0,19.0,25,-99.99,,,-99.99,,2013-05-19 21:53:00,
2013-05-19 22:02:00,63.0,29.0,-100.00,ENE,76,3.0,10.0,28,-99.99,,,-99.99,,2013-05-19 22:02:00,
2013-05-19 22:12:00,63.0,27.0,-100.00,ESE,117,3.0,11.0,25,-99.99,,,-99.99,,2013-05-19 22:12:00,
2013-05-19 22:23:00,64.0,29.0,-100.00,ESE,107,5.0,14.0,27,-99.99,,,-99.99,,2013-05-19 22:23:00,
2013-05-19 22:33:00,64.0,29.0,-100.00,ESE,106,5.0,14.0,27,-99.99,,,-99.99,,2013-05-19 22:33:00,
2013-05-19 22:42:00,65.0,28.0,-100.00,ESE,120,4.0,12.0,25,-99.99,,,-99.99,,2013-05-19 22:42:00,
2013-05-19 22:52:00,64.0,28.0,-100.00,ESE,123,4.0,12.0,25,-99.99,,,-99.99,,2013-05-19 22:52:00,
2013-05-19 23:02:00,66.0,27.0,-100.00,East,90,4.0,11.0,23,-99.99,,,-99.99,,2013-05-19 23:02:00,
2013-05-19 23:11:00,66.0,27.0,-100.00,East,89,4.0,11.0,23,-99.99,,,-99.99,,2013-05-19 23:11:00,
2013-05-19 23:21:00,65.0,28.0,-100.00,East,93,5.0,12.0,25,-99.99,,,-99.99,,2013-05-19 23:21:00,
2013-05-19 23:32:00,65.0,29.0,-100.00,East,93,5.0,12.0,25,-99.99,,,-99.99,,2013-05-19 23:32:00,
2013-05-19 23:41:00,66.0,28.0,-100.00,NE,51,5.0,15.0,24,-99.99,,,-99.99,,2013-05-19 23:41:00,
2013-05-19 23:42:00,66.0,28.0,-100.00,ENE,68,4.0,11.0,24,-99.99,,,-99.99,,2013-05-19 23:42:00,
2013-05-19 23:52:00,66.0,30.0,-100.00,ENE,69,4.0,10.0,25,-99.99,,,-99.99,,2013-05-19 23:52:00,